Location: Fountain Hills
(33.6120°N, 111.7170°W)
Time: 02:55:54
(UTC-07:00)

Daily predictions for brighter satellites

Satellite Brightness Start Highest point End
(mag) Time Altitude Azimuth Time Altitude Azimuth Time Altitude Azimuth
Cosmos 2369 Rocket 4.4 04:13:48 17° NE 04:15:03 18° ENE 04:18:52 10° E
Cosmos 1943 4.0 04:39:05 46° ENE 04:39:05 46° ENE 04:43:24 10° NNE
USA 229 DEB 3.8 04:56:22 12° SSW 05:02:44 74° ESE 05:09:39 10° NE
Cosmos 2154 Rocket 4.3 04:56:39 10° S 05:02:46 66° E 05:08:54 10° NNE
USA 229 3.8 04:56:13 11° SSW 05:02:50 73° ESE 05:09:44 10° NE
Cosmos 1536 4.1 04:59:15 10° SSE 05:02:57 38° E 05:03:42 35° ENE
Lacrosse 5 4.1 05:10:49 13° N 05:10:49 13° N 05:11:33 10° NNE
ASTRO E2 3.8 05:10:19 43° ESE 05:10:19 43° ESE 05:13:18 10° E
NOAA 6 4.3 05:09:45 10° NNE 05:14:51 66° ESE 05:19:57 10° S
H-2A ROCKET BODY 4.3 05:15:26 25° SW 05:19:34 36° S 05:48:17 10° SE
Cosmos 1610 Rocket 4.4 05:13:44 10° SSW 05:19:50 63° W 05:26:03 10° N
Feng Yun 1-1 Rocket 4.2 05:16:40 10° N 05:24:03 37° SW 05:27:23 10° SSW
SJ-6F 4.4 05:21:30 42° NNE 05:22:50 80° ESE 05:26:55 10° S
Skynet4D Del rocket 4.4 05:22:37 34° SW 05:24:06 41° S 05:29:07 10° ESE
OAO 3 Copernicus 4.3 05:30:09 56° WSW 05:31:01 68° SSW 05:36:04 10° ESE
Cosmos 468 4.5 05:26:05 10° SSW 05:31:20 85° ESE 05:36:38 10° NNE
Okean 1-7 Rocket 3.5 05:29:43 35° N 05:31:33 83° E 05:35:56 10° S
BREEZE-M DEB (TANK) 4.0 05:35:03 42° NW 05:36:06 48° NNW 05:48:00 10° NE
USA 215 3.2 05:29:54 10° NE 05:36:27 88° SE 05:42:59 10° SW
Cosmos 2056 Rocket 3.9 05:37:42 39° WSW 05:37:42 39° WSW 05:42:00 10° S
Thor Agena Rocket 4.0 05:35:55 10° SSW 05:40:18 38° WSW 05:40:18 38° WSW
Meteor 2-13 Rocket 4.4 05:35:52 10° SSW 05:41:55 59° W 05:47:59 10° N
CRYOSAT 2 4.3 05:37:44 10° S 05:42:33 61° W 05:46:10 18° NNW
Cosmos 1048 Rocket 4.2 05:39:11 10° S 05:44:16 72° ESE 05:49:26 10° NNE
Ariane Rocket 3.3 05:39:31 10° NNE 05:44:34 66° ESE 05:49:35 10° S
Meteor 1-19 Rocket 4.2 05:42:53 12° NNW 05:48:17 65° W 05:53:55 10° S
SKYMED 2 3.5 05:45:50 10° SSE 05:50:10 86° ENE 05:54:23 11° N
Nadezhda 3 Rocket 4.1 05:51:49 10° NNW 05:58:00 55° W 06:04:10 10° SSW
Cosmos 2369 Rocket 2.3 05:55:40 21° NW 05:59:25 56° WSW 06:04:56 10° S
Meteor 1-11 Rocket 4.2 05:54:27 10° SW 05:59:46 36° WNW 06:05:01 10° N
Lacrosse 4 Rocket 2.9 05:56:19 10° N 06:00:04 33° ENE 06:03:45 10° SE
Cosmos 1025 Rocket 2.9 05:57:49 11° NNW 06:02:02 67° W 06:06:18 10° S
COSMOS 2406 3.8 05:57:40 10° S 06:03:13 60° ESE 06:08:47 10° NNE
Meteor 2-4 Rocket 3.8 06:04:03 10° NNW 06:09:33 59° W 06:15:11 10° S
Meteor 1-23 Rocket 4.1 06:04:16 10° NNW 06:09:47 69° W 06:15:18 10° S
SL-27 R/B 3.3 06:06:48 10° S 06:10:15 54° ESE 06:13:47 10° NNE
Meteor 1-5 Rocket 4.1 06:07:58 10° SSW 06:13:14 59° W 06:18:28 10° N
SL-24 DEB 4.3 06:10:08 10° S 06:14:51 63° W 06:19:37 10° NNW
NOSS 3-1 (C) 3.3 06:14:35 10° SSW 06:20:18 82° WNW 06:26:37 10° NNE
Atlas Centaur 2 3.9 06:13:30 10° SW 06:21:30 47° SSE 06:28:34 10° E
YAOGAN 1 4.2 06:17:58 10° NNE 06:22:00 37° E 06:26:01 10° SSE
Cosmos 1943 4.5 06:21:04 17° WNW 06:22:17 18° WNW 06:26:02 10° NNW
USA 129 2.9 06:22:29 10° SSE 06:24:32 43° ENE 06:26:37 10° N
Meteor 2-19 Rocket 4.4 06:18:50 10° SSW 06:24:54 66° W 06:30:58 10° N
Helios 1B rocket 4.4 06:21:20 10° SE 06:24:56 30° ENE 06:28:33 10° N
Cosmos 1943 Rocket 2.1 06:20:14 10° NNW 06:25:44 75° WSW 06:31:13 10° SSE
Tiangong 2 1.0 06:24:07 20° WNW 06:26:08 87° NNE 06:29:16 10° ESE
Cosmos 1452 Rocket 4.1 06:21:45 12° NW 06:26:11 35° W 06:30:55 10° SSW
Cosmos 1544 Rocket 3.8 06:26:12 10° SSW 06:30:21 44° W 06:34:34 10° N
Cosmos 158 Rocket 4.1 06:26:56 10° SSW 06:32:07 57° WNW 06:37:24 10° N
Cosmos 864 Rocket 4.4 06:26:07 10° S 06:32:14 75° W 06:38:26 10° N
COSMO-SKYMED 1 3.7 06:34:48 10° SSW 06:38:19 24° W 06:41:52 10° NW
Cosmos 1461 3.7 06:35:38 10° WSW 06:39:28 30° WNW 06:43:12 10° N
IDEFIX/ARIANE 42P 3.0 06:34:32 10° NNE 06:39:44 70° ESE 06:44:56 10° S
Cosmos 1656 Rocket 4.2 06:36:18 10° NNW 06:41:57 65° ENE 06:47:35 10° SSE
DELTA 2 R/B (2) 4.1 06:43:30 10° SW 06:45:09 40° SSE 06:47:00 10° E
Cosmos 1500 3.1 06:43:16 10° SSW 06:47:00 70° W 06:50:45 10° N
Okean 2 4.4 06:46:10 10° NNW 06:49:42 27° W 06:53:12 10° SSW
ASTRO E2 3.2 06:45:50 10° W 06:49:47 57° S 06:53:45 10° ESE
CZ-2C R/B 2.5 06:45:10 10° N 06:50:18 86° W 06:55:14 10° SSW
CZ-3 R/B 1.8 06:41:15 10° WSW 06:50:46 48° S 06:53:59 10° ESE
PAYLOAD A 4.2 06:45:37 10° N 06:50:55 58° WNW 06:56:14 10° SSW
Cosmos 1743 3.6 06:47:16 10° S 06:51:05 54° E 06:54:54 10° NNE
BREEZE M DEB (TANK) 3.8 06:39:15 10° WNW 06:53:09 53° SW 06:56:27 10° SSE
Meteor 1-28 Rocket 4.4 06:50:43 10° SSW 06:53:52 25° W 06:57:04 10° NW
Cosmos 839 Rocket 4.1 06:51:54 10° NW 06:58:06 63° WSW 07:04:13 10° SSE
